User: anonymous   Login
Location: Bittelbronn
(48.4454°N, 8.5870°E)
Time: 11:22:38
(UTC+00:00)
Language:

Cosmos 2219 Rocket - Orbit

View from above orbital plane
View from above orbital plane
View from above satellite
View from above satellite

Ground track
Ground track

The orbit data is extracted from the following two-line orbital elements,

1 22220U 92076B   24205.86963751  .00000137  00000-0  92462-4 0  9998
2 22220  71.0014 359.0981 0015003 278.7650 233.7263 14.16673542637722
Epoch (UTC): 23 July 2024 20:52:16
Eccentricity: 0.0015003
inclination: 71.0014°
perigee height: 826 km
apogee height: 847 km
right ascension of ascending node: 359.0981°
argument of perigee: 278.7650°
revolutions per day: 14.16673542
mean anomaly at epoch: 233.7263°
orbit number at epoch: 63772

The dashed part of the orbit path shows where the satellite is in the earth's shadow,  

DLR